Weather History for Lincoln, IL

Change the Weather History Date:

Wednesday, March 5, 2014

  Actual Average (KSPI) Record (KSPI)
Temperature  
Mean Temperature 28 °F 38 °F  
Max Temperature 32 °F 47 °F 76 °F (1956)
Min Temperature 23 °F 29 °F -12 °F (1960)
Degree Days  
Heating Degree Days 38 27  
Month to date heating degree days 140  
Since 1 July heating degree days 4411  
Cooling Degree Days 0 0  
Month to date cooling degree days 0  
Year to date cooling degree days 0  
Moisture  
Dew Point 20 °F    
Average Humidity 75    
Maximum Humidity 90    
Minimum Humidity 55    
Precipitation  
Precipitation 0.00 in 0.09 in 1.40 in (1894)
Month to date precipitation 0.40  
Year to date precipitation 4.03  
Snow  
Snow 0.00 in 0.10 in 2.40 in (1966)
Month to date snowfall 0.6  
Since 1 July snowfall 18.7  
Snow Depth -    
Sea Level Pressure  
Sea Level Pressure 30.31 in    
Wind  
Wind Speed 9 mph (ENE)    
Max Wind Speed 18 mph    
Max Gust Speed 25 mph    
Visibility 10 miles    
Events      
T = Trace of Precipitation, MM = Missing Value Source: NWS Daily Summary

Daily Weather History Graph

Daily Weather History Graph

Search for Another Location

Airport:

Trip Planner

Search our weather history database for the weather conditions in past years. The results will help you decide how hot, cold, wet, or windy it might be!

Date:

Astronomy

Mar. 05, 2014 Rise Set
Actual Time 6:24 AM CST 5:53 PM CST
Civil Twilight 5:57 AM CST 6:20 PM CST
Nautical Twilight 5:26 AM CST 6:52 PM CST
Astronomical Twilight 4:54 AM CST 7:23 PM CST
Moon 8:50 AM CST (3/5) 11:02 PM CST (3/5)
Length of Visible Light 12h 23m
Length of Day
11h 28m
Waxing Crescent, 23% of the Moon is Illuminated
Mar 5
Waxing Crescent
Mar 8
First Quarter
Mar 16
Full
Mar 23
Last Quarter
Mar 30
New

Hourly Weather History & Observations

Time (CST) Temp. Windchill Dew Point Humidity Pressure Visibility Wind Dir Wind Speed Gust Speed Precip Events Conditions
12:15 AM 24.6 °F 20.3 °F 20.8 °F 86% 30.21 in 10.0 mi East 3.5 mph - N/A   Clear
12:35 AM 25.3 °F - 21.7 °F 86% 30.21 in 10.0 mi Calm Calm - N/A   Clear
12:55 AM 24.1 °F - 21.2 °F 89% 30.22 in 7.0 mi Calm Calm - N/A   Clear
1:15 AM 23.9 °F 16.8 °F 21.4 °F 90% 30.22 in 7.0 mi ENE 5.8 mph - N/A   Scattered Clouds
1:35 AM 26.2 °F 19.6 °F 22.6 °F 86% 30.22 in 10.0 mi ENE 5.8 mph - N/A   Mostly Cloudy
1:55 AM 26.4 °F 19.8 °F 23.0 °F 87% 30.22 in 7.0 mi ENE 5.8 mph - N/A   Overcast
2:15 AM 26.2 °F 18.6 °F 23.0 °F 88% 30.22 in 7.0 mi ENE 6.9 mph - N/A   Overcast
2:35 AM 26.2 °F 18.6 °F 23.0 °F 88% 30.22 in 7.0 mi ENE 6.9 mph - N/A   Mostly Cloudy
2:55 AM 25.7 °F 18.0 °F 22.6 °F 88% 30.22 in 7.0 mi ENE 6.9 mph - N/A   Scattered Clouds
3:15 AM 25.2 °F 15.7 °F 21.9 °F 87% 30.23 in 10.0 mi ENE 9.2 mph - N/A   Clear
3:35 AM 25.0 °F 16.3 °F 21.2 °F 86% 30.23 in 10.0 mi ENE 8.1 mph - N/A   Mostly Cloudy
3:55 AM 24.6 °F 16.7 °F 20.5 °F 84% 30.24 in 10.0 mi ENE 6.9 mph - N/A   Scattered Clouds
4:15 AM 23.9 °F 14.2 °F 20.1 °F 85% 30.24 in 10.0 mi ENE 9.2 mph - N/A   Clear
4:35 AM 23.9 °F 14.2 °F 19.8 °F 84% 30.25 in 10.0 mi ENE 9.2 mph - N/A   Scattered Clouds
4:53 AM 24.8 °F 15.3 °F 19.4 °F 80% 30.25 in 10.0 mi ENE 9.2 mph - N/A   Mostly Cloudy
4:55 AM 24.3 °F 14.6 °F 19.4 °F 82% 30.25 in 10.0 mi ENE 9.2 mph - N/A   Mostly Cloudy
5:15 AM 24.3 °F 15.4 °F 19.0 °F 80% 30.26 in 10.0 mi ENE 8.1 mph - N/A   Scattered Clouds
5:35 AM 23.9 °F 14.2 °F 18.5 °F 80% 30.26 in 10.0 mi ENE 9.2 mph - N/A   Clear
5:53 AM 24.8 °F 16.9 °F 17.6 °F 74% 30.26 in 10.0 mi East 6.9 mph - N/A   Clear
5:55 AM 23.9 °F 15.8 °F 18.1 °F 79% 30.26 in 10.0 mi East 6.9 mph - N/A   Clear
6:13 AM 24.8 °F 17.9 °F 17.6 °F 74% 30.26 in 10.0 mi East 5.8 mph - N/A   Clear
6:15 AM 23.7 °F 15.6 °F 17.6 °F 77% 30.26 in 10.0 mi East 6.9 mph - N/A   Clear
6:35 AM 23.5 °F 14.5 °F 17.6 °F 78% 30.27 in 10.0 mi ENE 8.1 mph - N/A   Clear
6:55 AM 23.9 °F 14.2 °F 17.6 °F 77% 30.29 in 10.0 mi ENE 9.2 mph - N/A   Clear
7:13 AM 24.8 °F 15.3 °F 17.6 °F 74% 30.30 in 10.0 mi ENE 9.2 mph - N/A   Clear
7:15 AM 24.4 °F 14.2 °F 17.2 °F 74% 30.30 in 10.0 mi ENE 10.4 mph - N/A   Clear
7:35 AM 25.0 °F 14.2 °F 17.6 °F 74% 30.30 in 10.0 mi ENE 11.5 mph - N/A   Clear
7:55 AM 25.5 °F 14.9 °F 16.9 °F 70% 30.30 in 10.0 mi ENE 11.5 mph 17.3 mph N/A   Clear
8:15 AM 25.9 °F 14.3 °F 18.1 °F 73% 30.32 in 10.0 mi ENE 13.8 mph - N/A   Clear
8:35 AM 26.4 °F 14.5 °F 17.4 °F 69% 30.32 in 10.0 mi ENE 15.0 mph - N/A   Clear
8:55 AM 27.0 °F 14.7 °F 15.8 °F 63% 30.33 in 10.0 mi ENE 16.1 mph 21.9 mph N/A   Clear
9:15 AM 27.7 °F 14.8 °F 16.0 °F 62% 30.33 in 10.0 mi ENE 18.4 mph 21.9 mph N/A   Clear
9:35 AM 27.9 °F 15.1 °F 15.1 °F 59% 30.33 in 10.0 mi ENE 18.4 mph 23.0 mph N/A   Clear
9:55 AM 28.4 °F 16.6 °F 16.0 °F 60% 30.33 in 10.0 mi East 16.1 mph 20.7 mph N/A   Clear
10:15 AM 28.4 °F 15.8 °F 15.8 °F 59% 30.34 in 10.0 mi ENE 18.4 mph 25.3 mph N/A   Clear
10:35 AM 29.3 °F 17.7 °F 16.7 °F 59% 30.34 in 10.0 mi East 16.1 mph 21.9 mph N/A   Scattered Clouds
10:55 AM 29.7 °F 18.6 °F 16.7 °F 59% 30.34 in 10.0 mi ENE 15.0 mph 21.9 mph N/A   Mostly Cloudy
11:15 AM 30.0 °F 18.3 °F 17.6 °F 60% 30.34 in 10.0 mi ENE 17.3 mph 21.9 mph N/A   Mostly Cloudy
11:30 AM 30.7 °F 19.2 °F 17.4 °F 58% 30.34 in 10.0 mi ENE 17.3 mph 21.9 mph N/A   Mostly Cloudy
11:55 AM 30.2 °F 18.9 °F 17.4 °F 59% 30.33 in 10.0 mi ENE 16.1 mph 23.0 mph N/A   Overcast
12:15 PM 31.5 °F 20.5 °F 17.4 °F 56% 30.32 in 10.0 mi ENE 16.1 mph 20.7 mph N/A   Overcast
12:35 PM 31.8 °F 21.4 °F 18.1 °F 57% 30.32 in 10.0 mi ENE 15.0 mph 20.7 mph N/A   Mostly Cloudy
12:55 PM 32.4 °F 22.5 °F 18.1 °F 56% 30.31 in 10.0 mi East 13.8 mph 21.9 mph N/A   Mostly Cloudy
1:15 PM 32.7 °F 23.0 °F 18.9 °F 57% 30.32 in 10.0 mi ENE 13.8 mph 21.9 mph N/A   Scattered Clouds
1:35 PM 32.9 °F 25.3 °F 18.5 °F 55% 30.32 in 10.0 mi East 9.2 mph 19.6 mph N/A   Clear
1:55 PM 32.5 °F 21.9 °F 18.7 °F 57% 30.32 in 10.0 mi ENE 16.1 mph 21.9 mph N/A   Clear
2:15 PM 32.4 °F 22.5 °F 19.9 °F 60% 30.32 in 10.0 mi ENE 13.8 mph - N/A   Clear
2:35 PM 32.4 °F 21.7 °F 21.2 °F 63% 30.32 in 10.0 mi NE 16.1 mph 20.7 mph N/A   Clear
2:55 PM 32.5 °F 21.9 °F 21.7 °F 64% 30.32 in 10.0 mi ENE 16.1 mph 20.7 mph N/A   Clear
3:15 PM 32.0 °F 20.8 °F 21.9 °F 66% 30.32 in 10.0 mi ENE 17.3 mph - N/A   Clear
3:35 PM 31.3 °F 20.7 °F 21.7 °F 68% 30.32 in 10.0 mi ENE 15.0 mph - N/A   Clear
3:55 PM 30.6 °F 20.7 °F 21.7 °F 70% 30.33 in 10.0 mi NE 12.7 mph - N/A   Clear
4:10 PM 30.4 °F 20.0 °F 22.6 °F 73% 30.34 in 10.0 mi NE 13.8 mph - N/A   Scattered Clouds
4:35 PM 29.7 °F 18.2 °F 23.0 °F 76% 30.34 in 10.0 mi NE 16.1 mph 19.6 mph N/A   Scattered Clouds
4:55 PM 28.8 °F 17.5 °F 22.3 °F 77% 30.34 in 10.0 mi NE 15.0 mph - N/A   Clear
5:15 PM 28.2 °F 16.3 °F 22.1 °F 78% 30.35 in 10.0 mi NE 16.1 mph 20.7 mph N/A   Scattered Clouds
5:35 PM 27.5 °F 16.3 °F 22.1 °F 80% 30.35 in 10.0 mi NE 13.8 mph 18.4 mph N/A   Mostly Cloudy
5:55 PM 27.0 °F 15.6 °F 21.7 °F 81% 30.36 in 10.0 mi NE 13.8 mph 18.4 mph N/A   Mostly Cloudy
6:15 PM 26.6 °F 14.7 °F 21.6 °F 81% 30.36 in 10.0 mi NE 15.0 mph 18.4 mph N/A   Mostly Cloudy
6:35 PM 26.1 °F 15.0 °F 21.4 °F 82% 30.36 in 10.0 mi NE 12.7 mph - N/A   Mostly Cloudy
6:55 PM 25.7 °F 14.6 °F 21.0 °F 82% 30.37 in 10.0 mi ENE 12.7 mph - N/A   Mostly Cloudy
7:15 PM 25.5 °F 12.0 °F 20.8 °F 82% 30.37 in 10.0 mi ENE 18.4 mph - N/A   Mostly Cloudy
7:35 PM 25.0 °F 12.6 °F 20.3 °F 82% 30.37 in 10.0 mi ENE 15.0 mph - N/A   Scattered Clouds
7:55 PM 24.8 °F 12.9 °F 20.3 °F 83% 30.37 in 10.0 mi ENE 13.8 mph 17.3 mph N/A   Scattered Clouds
8:15 PM 24.8 °F 11.9 °F 20.3 °F 83% 30.37 in 10.0 mi ENE 16.1 mph - N/A   Mostly Cloudy
8:35 PM 24.6 °F 13.8 °F 20.1 °F 83% 30.38 in 10.0 mi ENE 11.5 mph - N/A   Scattered Clouds
8:55 PM 24.6 °F 13.2 °F 20.1 °F 83% 30.38 in 10.0 mi ENE 12.7 mph - N/A   Clear
9:15 PM 24.4 °F 13.0 °F 19.9 °F 83% 30.38 in 10.0 mi ENE 12.7 mph 19.6 mph N/A   Clear
9:35 PM 24.4 °F 13.0 °F 19.8 °F 82% 30.39 in 10.0 mi ENE 12.7 mph 18.4 mph N/A   Scattered Clouds
9:55 PM 24.6 °F 12.7 °F 19.9 °F 82% 30.39 in 10.0 mi ENE 13.8 mph - N/A   Mostly Cloudy
10:15 PM 24.8 °F 12.9 °F 20.1 °F 82% 30.39 in 10.0 mi ENE 13.8 mph 19.6 mph N/A   Overcast
10:35 PM 24.8 °F 14.0 °F 20.1 °F 82% 30.39 in 10.0 mi East 11.5 mph - N/A   Overcast
10:55 PM 24.8 °F 14.0 °F 19.6 °F 81% 30.39 in 10.0 mi ENE 11.5 mph 17.3 mph N/A   Mostly Cloudy
11:15 PM 24.8 °F 16.1 °F 19.4 °F 80% 30.38 in 10.0 mi East 8.1 mph - N/A   Scattered Clouds
11:35 PM 24.6 °F 14.4 °F 19.2 °F 80% 30.38 in 10.0 mi ENE 10.4 mph 17.3 mph N/A   Scattered Clouds
11:55 PM 24.4 °F 14.9 °F 19.2 °F 81% 30.38 in 10.0 mi ENE 9.2 mph - N/A   Scattered Clouds